Jackson, MI

6:51 AM EDT on October 15, 2019 (GMT -0400)
Jackson County-Reynolds

Weather History for KJXN - September, 2019

Change the Weather History Date:

Sunday, September 15, 2019

  Actual Average Record
Temperature  
Mean Temperature 66 °F 62 °F  
Max Temperature 73 °F 73 °F 87 °F (1970)
Min Temperature 58 °F 51 °F 36 °F (1953)
Degree Days  
Heating Degree Days 0 5  
Month to date heating degree days 16 44  
Since 1 July heating degree days 29 79  
Cooling Degree Days 0 2  
Month to date cooling degree days 47 41  
Year to date cooling degree days 606 570  
Growing Degree Days 16 (Base 50)    
Moisture  
Dew Point 60 °F    
Average Humidity 77    
Maximum Humidity 90    
Minimum Humidity 65    
Precipitation  
Precipitation 0.03 in 0.12 in 0.98 in (1992)
Month to date precipitation 2.58 1.70  
Year to date precipitation 24.49 22.62  
Sea Level Pressure  
Sea Level Pressure 30.11 in    
Wind  
Wind Speed 5 mph ()    
Max Wind Speed 24 mph    
Max Gust Speed 36 mph    
Visibility 9.8 miles    
Events Rain    
T = Trace of Precipitation, MM = Missing Value Source: Averaged Metar Reports

Daily Weather History Graph

Daily Weather History Graph

Search for Another Location

Airport or City:

Astronomy

Sep. 15, 2019 Rise Set
Actual Time 7:17 AM EDT 7:47 PM EDT
Civil Twilight 6:49 AM EDT 8:15 PM EDT
Nautical Twilight 6:16 AM EDT 8:49 PM EDT
Astronomical Twilight 5:41 AM EDT 9:23 PM EDT
Moon 8:54 PM EDT 8:27 AM EDT
Length of Visible Light 13h 26m
Length of Day
12h 30m
Full, 98% of the Moon is Illuminated
Sep 15
Full
Sep 21
Last Quarter
Sep 28
New
Oct 5
First Quarter
Oct 13
Full

Hourly Weather History & Observations

Time (EDT) Temp. Dew Point Humidity Pressure Visibility Wind Dir Wind Speed Gust Speed Precip Events Conditions
12:56 AM 59.0 °F 55.0 °F 87% 30.18 in 10.0 mi Calm Calm - N/A   Clear
1:56 AM 60.1 °F 55.0 °F 83% 30.18 in 10.0 mi Calm Calm - N/A   Clear
2:56 AM 59.0 °F 55.0 °F 87% 30.16 in 10.0 mi SW 4.6 mph - N/A   Clear
3:56 AM 61.0 °F 57.0 °F 87% 30.14 in 10.0 mi SSW 5.8 mph - N/A   Mostly Cloudy
4:56 AM 62.1 °F 57.9 °F 86% 30.15 in 10.0 mi SW 5.8 mph - N/A   Overcast
5:56 AM 66.9 °F 59.0 °F 76% 30.13 in 10.0 mi SW 6.9 mph - N/A   Overcast
6:56 AM 64.9 °F 59.0 °F 81% 30.13 in 10.0 mi SW 5.8 mph - N/A   Overcast
7:56 AM 64.9 °F 59.0 °F 81% 30.14 in 10.0 mi SW 6.9 mph - N/A   Partly Cloudy
8:56 AM 66.9 °F 57.9 °F 73% 30.16 in 10.0 mi SW 13.8 mph 23.0 mph N/A   Mostly Cloudy
9:56 AM 66.9 °F 59.0 °F 76% 30.16 in 10.0 mi SW 8.1 mph - 0.00 in   Overcast
10:56 AM 68.0 °F 59.0 °F 73% 30.14 in 10.0 mi SW 9.2 mph - 0.01 in   Mostly Cloudy
11:56 AM 70.0 °F 57.9 °F 65% 30.14 in 10.0 mi SSW 13.8 mph 20.7 mph N/A   Mostly Cloudy
12:56 PM 69.1 °F 57.0 °F 65% 30.14 in 6.0 mi SW 21.9 mph 35.7 mph 0.00 in Rain Light Rain
1:56 PM 66.0 °F 60.1 °F 81% 30.12 in 10.0 mi SW 5.8 mph - 0.02 in   Overcast
3:56 PM 72.0 °F 61.0 °F 68% 30.06 in 10.0 mi South 6.9 mph - N/A   Overcast
4:56 PM 73.0 °F 63.0 °F 71% 30.05 in 10.0 mi SSW 6.9 mph - N/A   Overcast
5:56 PM 73.0 °F 63.0 °F 71% 30.04 in 10.0 mi SSW 4.6 mph - N/A   Overcast
6:56 PM 73.0 °F 64.0 °F 73% 30.04 in 10.0 mi Calm Calm - N/A   Overcast
7:56 PM 72.0 °F 64.0 °F 76% 30.04 in 10.0 mi SE 3.5 mph - N/A   Overcast
8:56 PM 71.1 °F 64.0 °F 78% 30.04 in 10.0 mi SSE 4.6 mph - N/A   Overcast
9:56 PM 70.0 °F 63.0 °F 78% 30.05 in 10.0 mi Calm Calm - N/A   Overcast
10:56 PM 69.1 °F 63.0 °F 81% 30.05 in 10.0 mi Calm Calm - N/A   Overcast
11:56 PM 69.1 °F 63.0 °F 81% 30.05 in 10.0 mi Calm Calm - N/A   Overcast